DLH2272 EDDM-LFMN

Flight info

Callsign DLH2272
Flight time 1h 16m
Altitude 35000
Route TURBU7S TURBU Y107 TOBSO DCT BAKOR DCT RENTA DCT ATPED DCT LUSIL DCT EVANO DCT ENOBA Z185 ASBOP/N0388F190 Z185 BORDI BORDI8R
Aircraft A320/M-SDE3FGHIRWY/LB1

Departure

Time 2026-05-06 09:15
Airport Munich Airport (EDDM)

Arrival

Time 2026-05-06 10:31
Airport Nice-Côte d'Azur Airport (LFMN)
Time Latitude Longitude Altitude Speed Heading
2026-05-06 08:42 48.35205 11.79332 1458 ft 0 kts 264°
2026-05-06 09:05 48.35205 11.79336 1467 ft 3 kts 264°
2026-05-06 09:05 48.35209 11.79375 1465 ft 4 kts 257°
2026-05-06 09:05 48.35216 11.79414 1456 ft 4 kts 249°
2026-05-06 09:06 48.35227 11.79451 1458 ft 4 kts 236°
2026-05-06 09:06 48.35245 11.79480 1460 ft 4 kts 208°
2026-05-06 09:06 48.35260 11.79488 1456 ft 0 kts 172°
2026-05-06 09:09 48.35244 11.79491 1466 ft 6 kts 173°
2026-05-06 09:09 48.35187 11.79501 1458 ft 8 kts 174°
2026-05-06 09:09 48.35133 11.79509 1459 ft 9 kts 173°
2026-05-06 09:10 48.35069 11.79520 1459 ft 9 kts 173°
2026-05-06 09:10 48.35016 11.79530 1459 ft 7 kts 173°
2026-05-06 09:10 48.34982 11.79569 1462 ft 9 kts 111°
2026-05-06 09:10 48.34961 11.79671 1462 ft 11 kts 151°
2026-05-06 09:11 48.34890 11.79688 1467 ft 9 kts 174°
2026-05-06 09:11 48.34827 11.79698 1459 ft 10 kts 170°
2026-05-06 09:11 48.34808 11.79806 1464 ft 14 kts 83°
2026-05-06 09:11 48.34820 11.79963 1467 ft 16 kts 83°
2026-05-06 09:12 48.34821 11.80130 1459 ft 17 kts 113°
2026-05-06 09:12 48.34756 11.80234 1465 ft 11 kts 154°
2026-05-06 09:12 48.34691 11.80249 1464 ft 9 kts 173°
2026-05-06 09:12 48.34631 11.80260 1457 ft 9 kts 173°
2026-05-06 09:13 48.34578 11.80270 1460 ft 6 kts 173°
2026-05-06 09:13 48.34544 11.80276 1468 ft 4 kts 173°
2026-05-06 09:13 48.34496 11.80281 1467 ft 10 kts 188°
2026-05-06 09:13 48.34459 11.80208 1466 ft 8 kts 260°
2026-05-06 09:14 48.34448 11.80076 1462 ft 20 kts 263°
2026-05-06 09:14 48.34405 11.79509 1465 ft 90 kts 263°
2026-05-06 09:14 48.34310 11.78271 1470 ft 146 kts 263°
2026-05-06 09:14 48.34176 11.76534 1568 ft 180 kts 264°
2026-05-06 09:15 48.34043 11.74718 2368 ft 172 kts 264°
2026-05-06 09:15 48.33877 11.72922 2960 ft 179 kts 251°
2026-05-06 09:15 48.33104 11.71401 3288 ft 194 kts 211°
2026-05-06 09:15 48.31813 11.70827 3691 ft 203 kts 180°
2026-05-06 09:16 48.30376 11.70827 4184 ft 211 kts 179°
2026-05-06 09:16 48.28893 11.71033 4669 ft 217 kts 163°
2026-05-06 09:16 48.27510 11.72021 5118 ft 229 kts 144°
2026-05-06 09:16 48.26172 11.73558 5408 ft 254 kts 144°
2026-05-06 09:17 48.24681 11.75113 6052 ft 265 kts 147°
2026-05-06 09:17 48.23133 11.76646 6875 ft 268 kts 148°
2026-05-06 09:17 48.21563 11.78184 7706 ft 271 kts 148°
2026-05-06 09:17 48.19980 11.79743 8538 ft 274 kts 149°
2026-05-06 09:18 48.18365 11.81303 9347 ft 277 kts 154°
2026-05-06 09:18 48.16582 11.82402 10101 ft 280 kts 164°
2026-05-06 09:18 48.14656 11.83345 10390 ft 302 kts 164°
2026-05-06 09:18 48.12579 11.84362 10585 ft 325 kts 164°
2026-05-06 09:19 48.10386 11.85448 11048 ft 337 kts 163°
2026-05-06 09:19 48.08146 11.86568 11722 ft 341 kts 163°
2026-05-06 09:19 48.05886 11.87697 12441 ft 343 kts 163°
2026-05-06 09:19 48.03611 11.88828 13181 ft 346 kts 163°
2026-05-06 09:20 48.01315 11.89965 13840 ft 350 kts 164°
2026-05-06 09:20 47.99026 11.91097 14443 ft 353 kts 164°
2026-05-06 09:20 47.96686 11.92256 15066 ft 355 kts 164°
2026-05-06 09:20 47.94332 11.93419 15680 ft 358 kts 164°
2026-05-06 09:21 47.91936 11.94462 16243 ft 359 kts 172°
2026-05-06 09:21 47.89450 11.94851 16806 ft 359 kts 182°
2026-05-06 09:21 47.86943 11.94800 17410 ft 361 kts 183°
2026-05-06 09:21 47.84422 11.94744 18002 ft 364 kts 183°
2026-05-06 09:22 47.81884 11.94690 18524 ft 366 kts 183°
2026-05-06 09:22 47.79329 11.94639 19034 ft 367 kts 184°
2026-05-06 09:22 47.76765 11.94592 19538 ft 369 kts 184°
2026-05-06 09:22 47.74194 11.94544 20070 ft 370 kts 184°
2026-05-06 09:23 47.71617 11.94496 20591 ft 371 kts 184°
2026-05-06 09:23 47.69025 11.94454 21088 ft 373 kts 184°
2026-05-06 09:23 47.66421 11.94412 21524 ft 376 kts 184°
2026-05-06 09:23 47.63797 11.94370 21977 ft 377 kts 184°
2026-05-06 09:24 47.61206 11.94325 22518 ft 378 kts 184°
2026-05-06 09:24 47.58571 11.94277 22937 ft 380 kts 184°
2026-05-06 09:24 47.55913 11.94224 23355 ft 383 kts 184°
2026-05-06 09:24 47.53239 11.94172 23747 ft 385 kts 184°
2026-05-06 09:25 47.50555 11.94124 24129 ft 387 kts 184°
2026-05-06 09:25 47.47855 11.94081 24511 ft 389 kts 184°
2026-05-06 09:25 47.45139 11.94035 24878 ft 390 kts 184°
2026-05-06 09:25 47.42426 11.93867 25269 ft 389 kts 190°
2026-05-06 09:26 47.39736 11.93337 25636 ft 391 kts 191°
2026-05-06 09:26 47.37030 11.92794 26020 ft 393 kts 191°
2026-05-06 09:26 47.34308 11.92250 26348 ft 396 kts 191°
2026-05-06 09:26 47.31570 11.91703 26680 ft 399 kts 191°
2026-05-06 09:27 47.28811 11.91151 27036 ft 400 kts 191°
2026-05-06 09:27 47.26042 11.90597 27402 ft 402 kts 191°
2026-05-06 09:27 47.23296 11.90051 27736 ft 404 kts 191°
2026-05-06 09:27 47.20503 11.89499 28059 ft 406 kts 191°
2026-05-06 09:28 47.17696 11.88944 28375 ft 408 kts 191°
2026-05-06 09:28 47.14879 11.88386 28707 ft 409 kts 191°
2026-05-06 09:28 47.12059 11.87826 29013 ft 411 kts 191°
2026-05-06 09:28 47.09218 11.87262 29329 ft 413 kts 192°
2026-05-06 09:29 47.06365 11.86697 29720 ft 413 kts 191°
2026-05-06 09:29 47.03520 11.86135 30126 ft 410 kts 192°
2026-05-06 09:29 47.00698 11.85545 30463 ft 409 kts 193°
2026-05-06 09:29 46.97909 11.84798 30824 ft 406 kts 195°
2026-05-06 09:30 46.95188 11.83939 31171 ft 403 kts 197°
2026-05-06 09:30 46.92469 11.83012 31587 ft 400 kts 197°
2026-05-06 09:30 46.89763 11.82075 31970 ft 398 kts 197°
2026-05-06 09:30 46.87069 11.81159 32300 ft 397 kts 197°
2026-05-06 09:31 46.84375 11.80266 32642 ft 396 kts 197°
2026-05-06 09:31 46.81690 11.79398 33042 ft 395 kts 197°
2026-05-06 09:31 46.79012 11.78549 33373 ft 393 kts 197°
2026-05-06 09:31 46.76337 11.77709 33602 ft 393 kts 197°
2026-05-06 09:32 46.73673 11.76877 34016 ft 390 kts 197°
2026-05-06 09:32 46.71022 11.76051 34277 ft 389 kts 197°
2026-05-06 09:32 46.68411 11.75216 34509 ft 389 kts 199°
2026-05-06 09:32 46.65860 11.73974 34761 ft 385 kts 207°
2026-05-06 09:33 46.63460 11.72170 34884 ft 384 kts 214°
2026-05-06 09:33 46.59271 11.67485 34916 ft 383 kts 230°
2026-05-06 09:33 46.57809 11.64257 34925 ft 384 kts 241°
2026-05-06 09:34 46.56614 11.60776 34914 ft 385 kts 242°
2026-05-06 09:34 46.54253 11.53778 34917 ft 384 kts 242°
2026-05-06 09:35 46.51872 11.46826 34923 ft 384 kts 241°
2026-05-06 09:35 46.49472 11.39930 34928 ft 385 kts 241°
2026-05-06 09:36 46.47042 11.33011 34955 ft 385 kts 240°
2026-05-06 09:36 46.44608 11.26096 34950 ft 385 kts 240°
2026-05-06 09:37 46.42193 11.19220 34954 ft 385 kts 240°
2026-05-06 09:37 46.39762 11.12328 35016 ft 384 kts 240°
2026-05-06 09:38 46.37331 11.05459 35022 ft 383 kts 240°
2026-05-06 09:38 46.34903 10.98605 35021 ft 382 kts 240°
2026-05-06 09:39 46.32480 10.91772 35000 ft 382 kts 240°
2026-05-06 09:39 46.30049 10.84945 35018 ft 382 kts 240°
2026-05-06 09:40 46.27655 10.78083 34989 ft 382 kts 240°
2026-05-06 09:40 46.24098 10.67804 34949 ft 382 kts 240°
2026-05-06 09:41 46.21707 10.60955 34934 ft 382 kts 240°
2026-05-06 09:41 46.19313 10.54106 34911 ft 382 kts 240°
2026-05-06 09:42 46.16910 10.47274 34913 ft 382 kts 240°
2026-05-06 09:42 46.14504 10.40448 34914 ft 382 kts 240°
2026-05-06 09:43 46.12094 10.33624 34911 ft 382 kts 240°
2026-05-06 09:43 46.09698 10.26840 34895 ft 381 kts 239°
2026-05-06 09:44 46.07288 10.20045 34896 ft 381 kts 239°
2026-05-06 09:44 46.04874 10.13264 34896 ft 380 kts 239°
2026-05-06 09:45 46.01930 10.06993 34890 ft 377 kts 232°
2026-05-06 09:45 45.98826 10.00907 34888 ft 377 kts 232°
2026-05-06 09:46 45.95725 9.94829 34885 ft 377 kts 232°
2026-05-06 09:46 45.92614 9.88746 34896 ft 377 kts 231°
2026-05-06 09:47 45.89500 9.82670 34890 ft 377 kts 231°
2026-05-06 09:47 45.86386 9.76616 34891 ft 377 kts 231°
2026-05-06 09:48 45.83274 9.70569 34883 ft 377 kts 231°
2026-05-06 09:48 45.80178 9.64567 34882 ft 377 kts 231°
2026-05-06 09:49 45.77050 9.58523 34881 ft 377 kts 231°
2026-05-06 09:49 45.73921 9.52495 34877 ft 377 kts 231°
2026-05-06 09:50 45.70801 9.46485 34881 ft 376 kts 231°
2026-05-06 09:50 45.69242 9.43487 35040 ft 376 kts 231°
2026-05-06 09:50 45.67684 9.40488 35074 ft 376 kts 231°
2026-05-06 09:51 45.64549 9.34472 34881 ft 377 kts 231°
2026-05-06 09:51 45.61410 9.28460 34867 ft 378 kts 231°
2026-05-06 09:52 45.58278 9.22494 34848 ft 378 kts 231°
2026-05-06 09:52 45.55123 9.16475 34851 ft 378 kts 231°
2026-05-06 09:53 45.51964 9.10467 34852 ft 378 kts 231°
2026-05-06 09:53 45.49331 9.05479 34857 ft 378 kts 231°
2026-05-06 09:54 45.46162 8.99481 34859 ft 379 kts 231°
2026-05-06 09:54 45.42987 8.93475 34887 ft 379 kts 231°
2026-05-06 09:55 45.39827 8.87517 34924 ft 379 kts 231°
2026-05-06 09:55 45.36644 8.81527 34949 ft 380 kts 231°
2026-05-06 09:56 45.32849 8.76406 34959 ft 378 kts 213°
2026-05-06 09:56 45.27984 8.73517 34958 ft 382 kts 200°
2026-05-06 09:57 45.22912 8.71271 34927 ft 382 kts 201°
2026-05-06 09:57 45.20373 8.70139 34786 ft 382 kts 201°
2026-05-06 09:57 45.17831 8.69006 34377 ft 382 kts 201°
2026-05-06 09:58 45.15301 8.67883 34067 ft 380 kts 201°
2026-05-06 09:58 45.12780 8.66769 33748 ft 378 kts 201°
2026-05-06 09:58 45.10270 8.65660 33388 ft 378 kts 201°
2026-05-06 09:58 45.07760 8.64547 33038 ft 378 kts 201°
2026-05-06 09:59 45.05279 8.63445 32689 ft 379 kts 201°
2026-05-06 09:59 45.02758 8.62325 32342 ft 380 kts 201°
2026-05-06 09:59 45.00228 8.61205 32006 ft 381 kts 201°
2026-05-06 09:59 44.97690 8.60088 31678 ft 382 kts 201°
2026-05-06 10:00 44.95150 8.58973 31341 ft 384 kts 201°
2026-05-06 10:00 44.92596 8.57852 31010 ft 385 kts 201°
2026-05-06 10:00 44.90033 8.56727 30691 ft 386 kts 201°
2026-05-06 10:00 44.87465 8.55599 30370 ft 387 kts 201°
2026-05-06 10:01 44.84891 8.54469 30031 ft 388 kts 201°
2026-05-06 10:01 44.82313 8.53334 29672 ft 389 kts 201°
2026-05-06 10:01 44.79731 8.52200 29313 ft 389 kts 201°
2026-05-06 10:01 44.77149 8.51071 28941 ft 387 kts 201°
2026-05-06 10:02 44.74612 8.49967 28582 ft 386 kts 201°
2026-05-06 10:02 44.72051 8.48855 28220 ft 384 kts 201°
2026-05-06 10:02 44.69506 8.47751 27877 ft 382 kts 201°
2026-05-06 10:02 44.66969 8.46647 27516 ft 381 kts 201°
2026-05-06 10:03 44.64442 8.45545 27192 ft 379 kts 201°
2026-05-06 10:03 44.61924 8.44453 26907 ft 378 kts 201°
2026-05-06 10:03 44.59413 8.43361 26622 ft 377 kts 201°
2026-05-06 10:03 44.56915 8.42272 26343 ft 376 kts 201°
2026-05-06 10:04 44.54420 8.41185 26062 ft 375 kts 201°
2026-05-06 10:04 44.51932 8.40104 25789 ft 374 kts 201°
2026-05-06 10:04 44.49449 8.39030 25517 ft 373 kts 201°
2026-05-06 10:04 44.47004 8.37978 25255 ft 372 kts 201°
2026-05-06 10:05 44.44530 8.36915 24984 ft 371 kts 201°
2026-05-06 10:05 44.42068 8.35850 24723 ft 371 kts 201°
2026-05-06 10:05 44.39607 8.34787 24446 ft 369 kts 201°
2026-05-06 10:05 44.37147 8.33727 24185 ft 368 kts 201°
2026-05-06 10:06 44.34706 8.32678 23903 ft 366 kts 201°
2026-05-06 10:06 44.32345 8.31384 23622 ft 362 kts 210°
2026-05-06 10:06 44.30224 8.29527 23322 ft 359 kts 219°
2026-05-06 10:06 44.28414 8.27210 22996 ft 358 kts 227°
2026-05-06 10:07 44.26899 8.24455 22625 ft 358 kts 234°
2026-05-06 10:07 44.25496 8.21596 22255 ft 357 kts 234°
2026-05-06 10:07 44.24088 8.18743 21882 ft 356 kts 234°
2026-05-06 10:07 44.22682 8.15907 21516 ft 355 kts 234°
2026-05-06 10:08 44.21276 8.13084 21164 ft 353 kts 234°
2026-05-06 10:08 44.19876 8.10270 20829 ft 353 kts 234°
2026-05-06 10:08 44.18480 8.07463 20500 ft 352 kts 234°
2026-05-06 10:08 44.17104 8.04702 20184 ft 351 kts 234°
2026-05-06 10:09 44.15708 8.01910 19862 ft 351 kts 234°
2026-05-06 10:09 44.14310 7.99120 19546 ft 350 kts 234°
2026-05-06 10:09 44.12919 7.96346 19236 ft 348 kts 234°
2026-05-06 10:09 44.11540 7.93593 18928 ft 346 kts 234°
2026-05-06 10:10 44.10166 7.90848 18621 ft 345 kts 234°
2026-05-06 10:10 44.08798 7.88119 18314 ft 344 kts 234°
2026-05-06 10:10 44.07433 7.85396 17995 ft 343 kts 235°
2026-05-06 10:10 44.06067 7.82676 17629 ft 342 kts 234°
2026-05-06 10:11 44.04703 7.79966 17380 ft 342 kts 234°
2026-05-06 10:11 44.03338 7.77256 17168 ft 342 kts 234°
2026-05-06 10:11 44.01984 7.74572 16736 ft 336 kts 235°
2026-05-06 10:11 44.00643 7.71908 16579 ft 338 kts 235°
2026-05-06 10:12 43.99295 7.69228 16378 ft 338 kts 236°
2026-05-06 10:12 43.97950 7.66556 16172 ft 338 kts 235°
2026-05-06 10:12 43.96605 7.63883 15954 ft 338 kts 235°
2026-05-06 10:12 43.95258 7.61209 15752 ft 338 kts 235°
2026-05-06 10:13 43.93910 7.58545 15561 ft 337 kts 235°
2026-05-06 10:13 43.92561 7.55884 15196 ft 336 kts 235°
2026-05-06 10:13 43.91239 7.53275 14690 ft 335 kts 235°
2026-05-06 10:13 43.89896 7.50628 14208 ft 334 kts 235°
2026-05-06 10:14 43.88556 7.47993 13722 ft 333 kts 235°
2026-05-06 10:14 43.87225 7.45374 13163 ft 332 kts 234°
2026-05-06 10:14 43.85663 7.43044 12642 ft 332 kts 218°
2026-05-06 10:14 43.83608 7.41622 12138 ft 333 kts 198°
2026-05-06 10:15 43.81293 7.41345 11598 ft 339 kts 177°
2026-05-06 10:15 43.79028 7.42309 11044 ft 346 kts 154°
2026-05-06 10:15 43.77095 7.44253 10469 ft 349 kts 144°
2026-05-06 10:15 43.75211 7.46370 9937 ft 348 kts 144°
2026-05-06 10:16 43.73355 7.48462 9705 ft 337 kts 144°
2026-05-06 10:16 43.71574 7.50470 9570 ft 324 kts 144°
2026-05-06 10:16 43.69877 7.52448 9435 ft 314 kts 139°
2026-05-06 10:16 43.68458 7.54680 9302 ft 306 kts 129°
2026-05-06 10:17 43.67361 7.57158 9096 ft 301 kts 119°
2026-05-06 10:17 43.66573 7.59819 8731 ft 300 kts 112°
2026-05-06 10:17 43.65882 7.62531 8339 ft 298 kts 112°
2026-05-06 10:17 43.65194 7.65227 7969 ft 297 kts 112°
2026-05-06 10:18 43.64509 7.67906 7589 ft 295 kts 112°
2026-05-06 10:18 43.63824 7.70570 7196 ft 294 kts 112°
2026-05-06 10:18 43.63140 7.73220 6832 ft 292 kts 112°
2026-05-06 10:18 43.62458 7.75853 6470 ft 291 kts 111°
2026-05-06 10:19 43.61782 7.78473 6094 ft 289 kts 111°
2026-05-06 10:19 43.61113 7.81066 5814 ft 282 kts 111°
2026-05-06 10:19 43.60458 7.83556 5684 ft 270 kts 115°
2026-05-06 10:19 43.59478 7.85616 5550 ft 254 kts 138°
2026-05-06 10:20 43.58075 7.86974 5307 ft 243 kts 161°
2026-05-06 10:20 43.56471 7.87501 4993 ft 234 kts 182°
2026-05-06 10:20 43.54894 7.87218 4733 ft 224 kts 202°
2026-05-06 10:20 43.53528 7.86242 4608 ft 221 kts 221°
2026-05-06 10:21 43.52481 7.84723 4479 ft 219 kts 239°
2026-05-06 10:21 43.51860 7.82840 4348 ft 216 kts 256°
2026-05-06 10:21 43.51721 7.80792 4222 ft 216 kts 274°
2026-05-06 10:21 43.52077 7.78785 4097 ft 218 kts 291°
2026-05-06 10:22 43.52894 7.77021 4017 ft 221 kts 307°
2026-05-06 10:22 43.53907 7.75417 4013 ft 222 kts 307°
2026-05-06 10:22 43.54918 7.73796 4011 ft 223 kts 307°
2026-05-06 10:22 43.55916 7.72192 4018 ft 223 kts 307°
2026-05-06 10:23 43.56924 7.70573 4007 ft 222 kts 307°
2026-05-06 10:23 43.57933 7.68951 4015 ft 224 kts 307°
2026-05-06 10:23 43.58950 7.67318 4014 ft 225 kts 307°
2026-05-06 10:23 43.59974 7.65693 4008 ft 225 kts 311°
2026-05-06 10:24 43.61192 7.64314 4006 ft 227 kts 315°
2026-05-06 10:24 43.62114 7.62607 3922 ft 221 kts 295°
2026-05-06 10:24 43.62734 7.60707 3766 ft 214 kts 289°
2026-05-06 10:24 43.63276 7.58792 3713 ft 214 kts 289°
2026-05-06 10:25 43.63824 7.56873 3660 ft 215 kts 289°
2026-05-06 10:25 43.64393 7.54960 3599 ft 216 kts 290°
2026-05-06 10:25 43.64986 7.53048 3423 ft 217 kts 291°
2026-05-06 10:25 43.65584 7.51176 3170 ft 216 kts 291°
2026-05-06 10:26 43.65963 7.49202 2887 ft 212 kts 270°
2026-05-06 10:26 43.65955 7.47169 2612 ft 212 kts 268°
2026-05-06 10:26 43.65950 7.45139 2333 ft 211 kts 267°
2026-05-06 10:26 43.65949 7.43117 2054 ft 211 kts 268°
2026-05-06 10:27 43.65949 7.41091 1765 ft 211 kts 267°
2026-05-06 10:27 43.65952 7.39083 1602 ft 206 kts 267°
2026-05-06 10:27 43.65957 7.37158 1443 ft 196 kts 268°
2026-05-06 10:27 43.65979 7.35303 1220 ft 190 kts 270°
2026-05-06 10:28 43.66196 7.33552 1138 ft 177 kts 284°
2026-05-06 10:28 43.66716 7.32099 1046 ft 164 kts 299°
2026-05-06 10:28 43.67377 7.30866 853 ft 156 kts 302°
2026-05-06 10:28 43.68026 7.29721 781 ft 149 kts 303°
2026-05-06 10:29 43.68634 7.28578 765 ft 147 kts 293°
2026-05-06 10:29 43.68923 7.27282 804 ft 139 kts 268°
2026-05-06 10:29 43.68754 7.25972 677 ft 141 kts 245°
2026-05-06 10:29 43.68353 7.24795 575 ft 133 kts 231°
2026-05-06 10:30 43.67742 7.23898 335 ft 127 kts 221°
2026-05-06 10:30 43.67102 7.23047 132 ft 131 kts 224°
2026-05-06 10:30 43.66470 7.22180 29 ft 116 kts 224°
2026-05-06 10:30 43.66011 7.21546 21 ft 69 kts 225°
2026-05-06 10:31 43.65792 7.21246 24 ft 26 kts 225°
2026-05-06 10:31 43.65666 7.21072 23 ft 23 kts 226°
2026-05-06 10:31 43.65619 7.20975 23 ft 12 kts 273°
2026-05-06 10:31 43.65681 7.20894 22 ft 13 kts 344°
2026-05-06 10:32 43.65766 7.20874 22 ft 12 kts 351°
2026-05-06 10:32 43.65844 7.20857 22 ft 11 kts 351°
2026-05-06 10:32 43.65913 7.20845 22 ft 10 kts 359°
2026-05-06 10:32 43.65973 7.20828 22 ft 8 kts 349°
2026-05-06 10:33 43.66026 7.20815 22 ft 7 kts 351°
2026-05-06 10:33 43.66072 7.20805 22 ft 8 kts 351°
2026-05-06 10:33 43.66143 7.20789 22 ft 11 kts 351°
2026-05-06 10:33 43.66179 7.20773 23 ft 4 kts 311°
2026-05-06 10:34 43.66176 7.20715 22 ft 7 kts 258°
2026-05-06 10:34 43.66171 7.20678 22 ft 1 kts 262°